DECAYED

FENGYUN 1C DEB, 31273 (Decayed)

Orbit data source: Space-Track

FENGYUN 1C DEB, 31273 was space debris in SSO originally from a launch on Mon, 10 May 1999 UTC launched from the Taiyaun Space Center, China (TSC). Fengyun 1C debris stems from the Chinese weather satellite Fengyun-1C, which was intentionally destroyed by a Chinese anti-satellite missile in 2007. This event dramatically increased the amount of space debris, with thousands of trackable fragments posing hazards to satellites and human spaceflight. The Fengyun 1C debris cloud has become a focal point in discussions about space sustainability and the need for international regulations to prevent the creation of new debris.

Loading next visibility...
Identifier
31273, 1999-025BNF
Orbit
Decayed
Country
Flag of CNCN / PRC
Related business
Manufacturer
Unknown
Mission
Decayed spacecraft
Bus & Motor
Unknown
Mass
Unknown
Launch date (UTC)
Icon of a cake. It is the launch day of the satellite!1999-05-10 (27 years ago)
Launch vehicle
Unknown
Launch site
Taiyaun Space Center, China (TSC)
Object type
Payload
Rocket body
Debris
Shape & HBR
Unknown shape, 0.1 m
Radar Cross Section
Small (<0.1 m²)

Expand to show TLE details & history
Last TLE update: 1 year ago

TLE from 1 year ago
0 FENGYUN 1C DEB
1 31273U 99025BNF 25108.64444845  .04636090  00000-0  25526-1 0  9995
2 31273  98.1950 347.5577 0010908 160.5871 199.5810 15.75688027949064
Epoch: 2025-04-18T15:28Z
TLE epoch observation values (Epoch: 2025-04-18T15:28:00.346Z)
Latitude
0.00007°
Longitude
-91.44279°
Altitude
352.725 km
Speed
7.693 km/s
True Right ascension
23h 10m 13s
True Declination
0° 00' 00"
Sunlit
Object was in daylight at epoch
Visualization orbit readout
Latitude
Unknown
Longitude
Unknown
Altitude
Unknown
Speed
Unknown
Apparent Right ascension
Unknown
Apparent Declination
Unknown
Sunlit
N/A
Visualization observer readout
Local Sidereal Time
23:44:59
Azimuth
Unknown
Elevation
Unknown
Doppler factor
Unknown
Orbital elements
Apogee altitude
346.93 km
Perigee altitude
332.275 km
Semi-major axis
6,717.739 km
Eccentricity
0.00109
Inclination
98.195°
RAAN
347.5577°
Arg. of periapsis
160.5871°
True anomaly
199.53916°
Mean anomaly
199.581°
Eccentric anomaly
199.56008°
Mean motion
3.94193 °/min
Orbital period
91.33 mins
BSTAR
0.025526
Loading maneuver chart data...
Computing Atmospheric mass density...
Loading historical data...
Loading historical data...
Loading historical data...
Loading historical data...
Loading historical data...
Loading historical data...
Loading historical data...

Documentation

Showing up to 5 results
|